Location: Clarion
(42.7316°N, 93.7330°W)
Time: 08:08:26
(UTC+00:00)

H-2A R/B - Pass Details

Date: 22 April 2026
Orbit: 729 x 829 km, 98.3° (Epoch: 17 May)

Event Time Altitude Azimuth Distance (km) Brightness Sun altitude
Rises 09:39:55 0° 9° (N) 3,248 6.0 -17.6°
Reaches altitude 10° 09:42:13 10° 6° (N) 2,332 5.1 -17.2°
Maximum altitude 09:47:18 62° 287° (WNW) 891 2.1 -16.5°
Enters shadow 09:50:31 23° 214° (SW) 1,642 3.2 -16.0°
